Вернуться в каталог

STARLINK-38288

АктивенСвязьSSO
NORAD 100315·PAYLOAD·🇺🇸 United States

Запущен Aug 12, 2026 с Vandenberg Space Force Base

Loading…

Ближайшие Пролёты (ближайшие 24 часа)

TLE

СвежийSource: Space-Track

Эпоха: Sep 13, 2026, 08:29 UTC

1 A0315U 26184Q   26256.35349369 -.00179729  00000-0 -47223-2 0  9990
2 A0315  97.2832 121.5498 0010592 302.5933  57.4289 15.39223716  6262

Отслеживайте STARLINK-38288 в реальном времени с AllMySat

Download on the App Store